Home > Weather > Chichester > Past weeks

Flag for United Kingdom Past Weather in Chichester, England, United Kingdom — Yesterday and Last 2 Weeks

Now
66 °F

Mild.


Feels Like: 66 °F
Forecast: 58 / 70 °F
Wind: 14 mph from Southwest

Location: Thorney Island

Current Time: Jul 24, 2016 at 5:42:18 PM

Latest Report: Jul 24, 2016 at 5:00 PM


Visibility: 17 mi

Pressure: 30.10 "Hg

Humidity: 85%

Dew Point: 61 °F

Location of ChichesterLocation

Past Weather in Chichester — Graph

°F

Chichester Temperature Yesterday

Maximum temperature yesterday: 71 °F (at 5:00 PM)
Minimum temperature yesterday: 58 °F (at 5:00 AM)
Average temperature yesterday: 65 °F

High & Low Weather Summary for the Past Weeks

 TemperatureHumidityPressure
High84 °F (Jul 19, 3:00 PM)99% (Jul 10, 8:00 AM)30.36 "Hg (Jul 10, 8:00 AM)
Low50 °F (Jul 15, 5:00 AM)49% (Jul 14, 6:00 PM)29.75 "Hg (Jul 11, 5:00 AM)
Average64 °F82%30.07 "Hg
* Reported Jul 9 3:00 PM — Jul 24 3:00 PM, Chichester, Weather by CustomWeather, © 2016

Note: Actual official high and low records may vary slightly from our data, if they occured in-between our weather recording intervals... More about our weather records

Advertising

Chichester Weather History for the Previous 24 Hours

Scroll right to see more
 ConditionsComfort  
Time TempWeatherWind HumidityBarometerVisibility
3:00 PM
Sun, Jul 24
66 °FMild.15 mph79%30.11 "Hg25 mi
11:00 AM67 °FMild.12 mph88%30.13 "Hg14 mi
10:00 AM67 °FMild.12 mph86%30.13 "Hg19 mi
9:00 AM65 °FMild.9 mph91%30.13 "Hg15 mi
8:00 AM64 °FMild.7 mph93%30.13 "Hg18 mi
7:00 AM60 °FCool.No wind96%30.12 "Hg14 mi
6:00 AM57 °FCool.1 mph98%30.11 "Hg11 mi
5:00 AM57 °FCool.No wind97%30.11 "Hg15 mi
4:00 AM57 °FCool.2 mph96%30.12 "Hg18 mi
3:00 AM59 °FCool.No wind94%30.13 "Hg18 mi
2:00 AM60 °FCool.3 mph94%30.14 "Hg17 mi
1:00 AM61 °FCool.3 mph95%30.14 "Hg13 mi
12:00 AM61 °FCool.5 mph93%30.14 "Hg13 mi
11:00 PM
Sat, Jul 23
60 °FCool.5 mph93%30.15 "Hg19 mi
10:00 PM61 °FCool.8 mph87%30.15 "Hg28 mi
9:00 PM63 °FMild.9 mph79%30.14 "Hg25 mi
8:00 PM66 °FMild.12 mph68%30.14 "Hg31 mi
6:00 PM69 °FMild.15 mph68%30.13 "Hg31 mi
5:00 PM71 °FMild.13 mph68%30.14 "Hg25 mi
Weather by CustomWeather, © 2016

See weather overviewHow to use our weather pages